TimeMDT,TemperatureF,Dew PointF,Humidity,Sea Level PressureIn,VisibilityMPH,Wind Direction,Wind SpeedMPH,Gust SpeedMPH,PrecipitationIn,Events,Conditions,WindDirDegrees,DateUTC
12:33 AM,68.0,51.8,56,30.12,10.0,WNW,13.8,-,N/A,,Clear,290,2013-09-08 06:33:00
12:53 AM,66.9,52.0,59,29.90,10.0,NW,15.0,20.7,N/A,,Clear,310,2013-09-08 06:53:00
1:53 AM,63.0,53.1,70,29.90,10.0,South,5.8,-,N/A,,Clear,190,2013-09-08 07:53:00
2:53 AM,61.0,51.1,70,29.88,10.0,WSW,4.6,-,N/A,,Clear,240,2013-09-08 08:53:00
3:53 AM,57.0,50.0,77,29.89,10.0,WSW,3.5,-,N/A,,Clear,250,2013-09-08 09:53:00
4:53 AM,57.0,51.1,81,29.89,10.0,West,3.5,-,N/A,,Clear,280,2013-09-08 10:53:00
5:53 AM,60.1,51.1,72,29.91,10.0,West,4.6,-,N/A,,Clear,270,2013-09-08 11:53:00
6:53 AM,59.0,51.1,75,29.93,10.0,North,6.9,-,N/A,,Clear,360,2013-09-08 12:53:00
7:53 AM,62.1,52.0,70,29.92,10.0,North,6.9,-,N/A,,Clear,350,2013-09-08 13:53:00
8:53 AM,62.1,54.0,75,29.92,10.0,Calm,Calm,-,0.00,,Clear,0,2013-09-08 14:53:00
9:53 AM,66.0,55.9,70,29.92,10.0,NNW,4.6,-,N/A,,Partly Cloudy,330,2013-09-08 15:53:00
10:53 AM,66.0,55.9,70,29.91,10.0,NNW,5.8,-,N/A,,Partly Cloudy,330,2013-09-08 16:53:00
11:53 AM,72.0,55.0,55,29.88,10.0,Calm,Calm,-,N/A,,Clear,0,2013-09-08 17:53:00
12:53 PM,78.1,54.0,43,29.83,10.0,Variable,3.5,-,N/A,,Clear,0,2013-09-08 18:53:00
1:53 PM,84.0,48.0,28,29.79,10.0,Variable,5.8,-,N/A,,Clear,0,2013-09-08 19:53:00
2:53 PM,86.0,43.0,22,29.75,10.0,SW,12.7,23.0,N/A,,Scattered Clouds,230,2013-09-08 20:53:00
3:53 PM,80.1,48.0,32,29.77,10.0,WNW,15.0,20.7,0.00,Rain,Light Rain,290,2013-09-08 21:53:00
4:53 PM,75.9,51.1,42,29.78,10.0,NW,21.9,33.4,0.00,,Scattered Clouds,310,2013-09-08 22:53:00
5:53 PM,75.0,52.0,44,29.78,10.0,WNW,21.9,29.9,N/A,,Clear,290,2013-09-08 23:53:00
6:53 PM,70.0,52.0,53,29.83,10.0,West,10.4,18.4,N/A,,Partly Cloudy,270,2013-09-09 00:53:00
7:53 PM,66.9,51.1,57,29.86,10.0,WSW,9.2,-,N/A,,Overcast,250,2013-09-09 01:53:00
8:53 PM,63.0,52.0,67,29.85,10.0,WNW,6.9,-,0.01,,Overcast,300,2013-09-09 02:53:00
9:53 PM,63.0,52.0,67,29.86,10.0,WSW,4.6,-,N/A,,Overcast,250,2013-09-09 03:53:00
10:53 PM,61.0,54.0,78,29.86,10.0,WNW,4.6,-,0.00,Rain,Light Rain,290,2013-09-09 04:53:00
11:53 PM,59.0,54.0,83,29.83,10.0,West,6.9,-,0.00,,Overcast,260,2013-09-09 05:53:00